Content
SEND FEEDBACK

Daily
Averages
Monthly
Summary
Philippines

QUEZON CITY, PHILIPPINES


Home > Asia > Philippines
Elevation: 46 meters     Latitude: 14 39N     Longitude: 121 03E

WEATHER
 
SELECT A DAY
Number of Records: 172,482;   Date Range: 7/1/96 - 7/26/14
 
SHARE

PRINT THIS DATA

[ ← Previous Day ]
WEATHER ALMANAC - 29 JUNE, 2013
[ Next Day → ]
[ °F ]   °C
We're sorry. There is no daily almanac available for Quezon City, Philippines on 29 June, 2013.
WEATHER BY HOUR - 29 JUNE, 2013
[ °F ]   °C
Local TimeTemperatureDewpointHumidityBarometerVisibilityWind DirectionWind SpeedGust SpeedPrecipitationEventsConditions
1:00 AM28 °C25 °C84 %1008.1 hPa10 kmSW (220°)1.9 km/hScattered Clouds
2:00 AM27.8 °C25 °C81 %1008.1 hPa9.7 kmCalmHaze
2:00 AM28 °C25 °C84 %1008.1 hPa10 kmWSW (250°)3.7 km/hScattered Clouds
3:00 AM28 °C25 °C84 %1008.1 hPa9 kmNorth (10°)5.6 km/hScattered Clouds
4:00 AM28 °C25 °C84 %1008.1 hPa9 kmVariable1.9 km/hScattered Clouds
5:00 AM28 °C25 °C84 %1007.1 hPa9 kmVariable1.9 km/hScattered Clouds
5:00 AM27.8 °C25.6 °C83 %1007.5 hPa9.7 kmSSE (150°)3.5 km/hHaze
6:00 AM28 °C26 °C89 %1008.1 hPa8 kmVariable3.7 km/hScattered Clouds
7:00 AM29 °C25 °C79 %1009.1 hPa9 kmSSW (210°)1.9 km/hScattered Clouds
8:00 AM29 °C25 °C79 %1009.1 hPa10 kmWSW (240°)3.7 km/hMostly Cloudy
8:00 AM29.4 °C25 °C72 %1009.5 hPa9.7 kmWSW (240°)3.5 km/hHaze
9:00 AM30 °C25 °C74 %1009.1 hPa9 kmWest (260°)3.7 km/hMostly Cloudy
10:00 AM31 °C22 °C58 %1009.1 hPa9 kmNNW (330°)5.6 km/hMostly Cloudy
11:00 AM31.7 °C22.8 °C51 %1009.5 hPa9.7 kmWNW (290°)10.8 km/hHaze
11:00 AM32 °C23 °C59 %1009.1 hPa9 kmWNW (290°)13 km/hScattered Clouds
12:00 PM33 °C22 °C52 %1008.1 hPa10 kmNE (50°)16.7 km/hScattered Clouds
1:00 PM29 °C25 °C79 %1007.1 hPa9 kmNE (50°)22.2 km/hRainLight Rain Showers
2:00 PM31 °C24 °C66 %1007.1 hPa10 kmENE (60°)9.3 km/hMostly Cloudy
2:00 PM30.6 °C23.9 °C60 %1007.5 hPa9.7 kmENE (60°)7.2 km/hRainLight Rain Showers
3:00 PM31 °C24 °C66 %1006.1 hPa10 kmEast (100°)7.4 km/hMostly Cloudy
4:00 PM29 °C25 °C79 %1006.1 hPa10 kmESE (120°)7.4 km/hMostly Cloudy
4:20 PM29 °C26 °C84 %1006.1 hPa10 kmEast (100°)9.3 km/hRainLight Rain Showers
5:00 PM28.3 °C26.1 °C86 %1007.5 hPa9.7 kmESE (120°)7.2 km/hRainLight Rain Showers
5:00 PM28 °C26 °C89 %1007.1 hPa10 kmSE (130°)7.4 km/hRainLight Rain Showers
6:00 PM28 °C26 °C89 %1005.1 hPa10 kmSSW (200°)7.4 km/hMostly Cloudy
7:00 PM27 °C26 °C94 %1006.1 hPa10 kmESE (110°)7.4 km/hRainLight Rain Showers
8:00 PM27 °C25 °C89 %1006.1 hPa10 kmNorth (360°)11.1 km/hRainLight Rain
8:00 PM27.2 °C25 °C83 %1006.8 hPa9.7 kmNorth10.8 km/hRainLight Rain
9:00 PM26.7 °C24.4 °C83 %1006.8 hPa9.7 kmNorth14.3 km/hRainLight Rain
9:00 PM27 °C24 °C84 %1006.1 hPa10 kmNorth (360°)13 km/hRainLight Rain
10:00 PM24.4 °C24.4 °C100 %1007.5 hPa6.4 kmNorth14.3 km/hRainRain
10:00 PM25 °C25 °C100 %1007.1 hPa6.9 kmNorth (360°)13 km/hRainRain
11:00 PM25.6 °C25.6 °C99 %1006.8 hPa9.7 kmNW (320°)18 km/hRainLight Rain
11:00 PM26 °C25 °C94 %1005.1 hPa9 kmNW (320°)18.5 km/hRainLight Rain
Hourly data recorded from RPLL, located 0 kilometers away from Quezon City, Philippines







STORIES FROM OUR PARTNERS